Location: Arrien
(43.3167°N, 0.1500°W)
Time: 04:17:21
(UTC+00:00)

Cosmos 2369 - Pass Details

Date: 15 October 2021
Orbit: 838 x 857 km, 71.0° (Epoch: 08 December)

Event Time Altitude Azimuth Distance (km) Brightness Sun altitude
Rises 18:56:00 0° 214° (SW) 3,378 7.2 -18.7°
Reaches altitude 10° 18:58:28 10° 218° (SW) 2,449 6.5 -19.1°
Maximum altitude 19:04:01 60° 298° (WNW) 960 4.2 -20.1°
Drops below altitude 10° 19:09:38 10° 18° (NNE) 2,475 6.0 -21.2°
Sets 19:12:08 0° 23° (NNE) 3,417 6.7 -21.6°
